Nantucket, MA

9:02 AM EDT on April 26, 2017 (GMT -0400)
Nantucket Memorial

Weather History for KACK - June, 2013

Change the Weather History Date:

Wednesday, June 12, 2013

  Actual Average Record
Temperature  
Mean Temperature 65 °F -  
Max Temperature 71 °F 66 °F 81 °F (1964)
Min Temperature 59 °F 52 °F 43 °F (1966)
Growing Degree Days 15 (Base 50)    
Moisture  
Dew Point 55 °F    
Average Humidity 74    
Maximum Humidity 97    
Minimum Humidity 49    
Precipitation  
Precipitation 0.00 in - - ()
Sea Level Pressure  
Sea Level Pressure 29.65 in    
Wind  
Wind Speed 13 mph (WNW)    
Max Wind Speed 22 mph    
Max Gust Speed 31 mph    
Visibility 9 miles    
Events      
Averages and records for this station are not official NWS values.
T = Trace of Precipitation, MM = Missing Value Source: NWS Daily Summary

Daily Weather History Graph

Daily Weather History Graph

Search for Another Location

Airport or City:

Trip Planner

Search our weather history database for the weather conditions in past years. The results will help you decide how hot, cold, wet, or windy it might be!

Date:

Astronomy

Jun. 12, 2013 Rise Set
Actual Time 5:06 AM EDT 8:13 PM EDT
Civil Twilight 4:33 AM EDT 8:47 PM EDT
Nautical Twilight 3:49 AM EDT 9:30 PM EDT
Astronomical Twilight 2:58 AM EDT 10:21 PM EDT
Moon 8:44 AM EDT (6/12) 10:45 PM EDT (6/12)
Length of Visible Light 16h 14m
Length of Day
15h 07m
Waxing Crescent, 14% of the Moon is Illuminated
Jun 12
Waxing Crescent
Jun 16
First Quarter
Jun 23
Full
Jun 30
Last Quarter
Jul 8
New

Hourly Weather History & Observations

Time (EDT) Temp. Dew Point Humidity Pressure Visibility Wind Dir Wind Speed Gust Speed Precip Events Conditions
12:53 AM 62.1 °F 59.0 °F 90% 29.60 in 6.0 mi West 10.4 mph - N/A   Overcast
1:06 AM 62.6 °F 59.0 °F 88% 29.60 in 5.0 mi West 8.1 mph - N/A   Overcast
1:14 AM 60.8 °F 59.0 °F 94% 29.59 in 5.0 mi West 8.1 mph - N/A   Overcast
1:53 AM 61.0 °F 60.1 °F 97% 29.59 in 4.0 mi West 5.8 mph - N/A   Overcast
2:11 AM 60.8 °F 59.0 °F 94% 29.59 in 3.0 mi WSW 6.9 mph - N/A   Overcast
2:36 AM 60.8 °F 57.2 °F 88% 29.59 in 3.0 mi WSW 6.9 mph - N/A   Overcast
2:53 AM 59.0 °F 57.0 °F 93% 29.59 in 4.0 mi WSW 9.2 mph - N/A   Overcast
3:53 AM 60.1 °F 57.0 °F 90% 29.59 in 10.0 mi West 8.1 mph - N/A   Partly Cloudy
4:53 AM 61.0 °F 55.0 °F 81% 29.59 in 10.0 mi West 12.7 mph 20.7 mph N/A   Clear
5:53 AM 62.1 °F 55.0 °F 78% 29.60 in 10.0 mi West 18.4 mph 25.3 mph N/A   Mostly Cloudy
6:53 AM 63.0 °F 54.0 °F 72% 29.61 in 10.0 mi West 21.9 mph 28.8 mph N/A   Mostly Cloudy
7:53 AM 63.0 °F 54.0 °F 72% 29.61 in 10.0 mi West 20.7 mph 29.9 mph N/A   Mostly Cloudy
8:40 AM 64.4 °F 55.4 °F 73% 29.61 in 10.0 mi WNW 17.3 mph 23.0 mph N/A   Mostly Cloudy
8:53 AM 64.0 °F 54.0 °F 70% 29.62 in 10.0 mi WNW 18.4 mph 31.1 mph N/A   Overcast
9:53 AM 66.9 °F 54.0 °F 63% 29.62 in 10.0 mi WNW 21.9 mph 27.6 mph N/A   Overcast
10:06 AM 66.2 °F 53.6 °F 64% 29.61 in 10.0 mi West 16.1 mph 28.8 mph N/A   Overcast
10:22 AM 64.4 °F 55.4 °F 73% 29.62 in 10.0 mi West 17.3 mph 24.2 mph N/A   Overcast
10:30 AM 66.2 °F 55.4 °F 68% 29.62 in 10.0 mi West 20.7 mph 28.8 mph N/A   Overcast
10:53 AM 66.0 °F 55.0 °F 68% 29.63 in 10.0 mi West 16.1 mph 26.5 mph N/A   Overcast
11:53 AM 66.0 °F 55.9 °F 70% 29.63 in 10.0 mi West 13.8 mph - N/A   Overcast
12:53 PM 66.0 °F 55.0 °F 68% 29.64 in 10.0 mi West 17.3 mph 25.3 mph N/A   Overcast
1:53 PM 69.1 °F 52.0 °F 54% 29.65 in 10.0 mi WNW 19.6 mph 26.5 mph N/A   Mostly Cloudy
2:53 PM 68.0 °F 51.1 °F 55% 29.66 in 10.0 mi WNW 18.4 mph 26.5 mph N/A   Overcast
3:53 PM 71.1 °F 51.1 °F 49% 29.66 in 10.0 mi NW 20.7 mph 28.8 mph N/A   Partly Cloudy
4:53 PM 70.0 °F 51.1 °F 51% 29.67 in 10.0 mi WNW 16.1 mph 23.0 mph N/A   Mostly Cloudy
5:23 PM 64.4 °F 53.6 °F 68% 29.69 in 10.0 mi North 18.4 mph - N/A   Overcast
5:53 PM 63.0 °F 55.0 °F 75% 29.70 in 10.0 mi NNW 11.5 mph - N/A   Overcast
6:53 PM 64.0 °F 53.1 °F 67% 29.72 in 10.0 mi NNW 15.0 mph - N/A   Overcast
7:53 PM 63.0 °F 54.0 °F 72% 29.75 in 10.0 mi NNW 17.3 mph 24.2 mph N/A   Overcast
8:53 PM 63.0 °F 54.0 °F 72% 29.76 in 10.0 mi NNW 17.3 mph 23.0 mph N/A   Overcast
9:53 PM 63.0 °F 53.1 °F 70% 29.79 in 10.0 mi NNW 10.4 mph - N/A   Overcast
10:53 PM 63.0 °F 55.0 °F 75% 29.79 in 10.0 mi NW 9.2 mph - N/A   Overcast
11:53 PM 63.0 °F 54.0 °F 72% 29.79 in 10.0 mi NW 13.8 mph - N/A   Overcast